Caro, MI

1:50 PM EDT on September 23, 2019 (GMT -0400)
Caro

Weather History for KCFS - August, 2019

Change the Weather History Date:

Monday, August 19, 2019

  Actual Average (KMBS) Record (KMBS)
Temperature  
Mean Temperature 74 °F -  
Max Temperature 83 °F 77 °F 85 °F (2013)
Min Temperature 64 °F 55 °F 47 °F (1997)
Cooling Degree Days 8    
Growing Degree Days 24 (Base 50)    
Moisture  
Dew Point 64 °F    
Average Humidity 76    
Maximum Humidity 93    
Minimum Humidity 47    
Precipitation  
Precipitation 0.00 in - - ()
Sea Level Pressure  
Sea Level Pressure 29.99 in    
Wind  
Wind Speed 2 mph (SW)    
Max Wind Speed 9 mph    
Max Gust Speed -    
Visibility 10 miles    
Events      
Averages and records for this station are not official NWS values.
T = Trace of Precipitation, MM = Missing Value Source: NWS Daily Summary

Daily Weather History Graph

Daily Weather History Graph

Search for Another Location

Airport or City:

Astronomy

Aug. 19, 2019 Rise Set
Actual Time 6:42 AM EDT 8:31 PM EDT
Civil Twilight 6:12 AM EDT 9:01 PM EDT
Nautical Twilight 5:35 AM EDT 9:38 PM EDT
Astronomical Twilight 4:54 AM EDT 10:18 PM EDT
Moon 10:45 PM EDT (8/19) 10:28 AM EDT (8/19)
Length of Visible Light 14h 49m
Length of Day
13h 48m
Waning Gibbous, 85% of the Moon is Illuminated
Aug 19
Waning Gibbous
Aug 23
Last Quarter
Aug 30
New
Sep 5
First Quarter
Sep 14
Full

Hourly Weather History & Observations

Time (EDT) Temp. Heat Index Dew Point Humidity Pressure Visibility Wind Dir Wind Speed Gust Speed Precip Events Conditions
12:18 AM 68.5 °F - 65.3 °F 89% 29.88 in 10.0 mi SSW 3.5 mph - N/A   Clear
12:36 AM 68.2 °F - 65.5 °F 91% 29.88 in 10.0 mi SSW 4.6 mph - N/A   Clear
12:55 AM 68.0 °F - 65.3 °F 91% 29.89 in 10.0 mi SSW 3.5 mph - N/A   Clear
12:56 AM 68.0 °F - 65.3 °F 91% 29.89 in 10.0 mi SSW 3.5 mph - N/A   Clear
1:15 AM 67.3 °F - 64.9 °F 92% 29.90 in 10.0 mi SSW 3.5 mph - N/A   Clear
1:39 AM 67.1 °F - 64.6 °F 92% 29.90 in 10.0 mi SSW 3.5 mph - N/A   Clear
1:57 AM 67.3 °F - 64.9 °F 92% 29.90 in 10.0 mi SSW 4.6 mph - N/A   Clear
2:15 AM 66.7 °F - 64.4 °F 92% 29.90 in 10.0 mi SSW 3.5 mph - N/A   Clear
2:16 AM 66.7 °F - 64.4 °F 92% 29.90 in 10.0 mi SSW 4.6 mph - N/A   Clear
2:35 AM 66.9 °F - 64.6 °F 92% 29.91 in 10.0 mi SW 3.5 mph - N/A   Clear
2:55 AM 67.1 °F - 64.4 °F 91% 29.92 in 10.0 mi SSW 4.6 mph - N/A   Clear
3:18 AM 66.2 °F - 63.7 °F 92% 29.92 in 10.0 mi SSW 3.5 mph - N/A   Clear
3:36 AM 66.2 °F - 63.5 °F 91% 29.92 in 10.0 mi Calm Calm - N/A   Clear
3:55 AM 65.7 °F - 63.1 °F 92% 29.92 in 10.0 mi SSW 3.5 mph - N/A   Clear
3:56 AM 65.7 °F - 63.1 °F 92% 29.92 in 10.0 mi SSW 3.5 mph - N/A   Clear
4:15 AM 64.8 °F - 62.6 °F 93% 29.92 in 10.0 mi SW 3.5 mph - N/A   Clear
4:39 AM 64.6 °F - 62.6 °F 93% 29.93 in 10.0 mi Calm Calm - N/A   Clear
4:57 AM 64.9 °F - 62.8 °F 93% 29.93 in 10.0 mi Calm Calm - N/A   Clear
5:15 AM 64.9 °F - 62.8 °F 93% 29.93 in 10.0 mi Calm Calm - N/A   Clear
5:16 AM 64.9 °F - 62.8 °F 93% 29.93 in 10.0 mi Calm Calm - N/A   Clear
5:35 AM 64.8 °F - 62.4 °F 92% 29.94 in 10.0 mi Calm Calm - N/A   Clear
5:36 AM 64.8 °F - 62.4 °F 92% 29.94 in 10.0 mi Calm Calm - N/A   Clear
5:55 AM 64.4 °F - 62.2 °F 93% 29.95 in 10.0 mi Calm Calm - N/A   Clear
6:18 AM 65.3 °F - 62.6 °F 91% 29.95 in 10.0 mi West 3.5 mph - N/A   Clear
6:36 AM 64.9 °F - 62.2 °F 91% 29.96 in 10.0 mi Calm Calm - N/A   Clear
6:55 AM 65.1 °F - 62.1 °F 90% 29.97 in 10.0 mi Calm Calm - N/A   Clear
6:56 AM 65.1 °F - 62.1 °F 90% 29.97 in 10.0 mi Calm Calm - N/A   Clear
7:15 AM 64.4 °F - 61.7 °F 91% 29.98 in 10.0 mi Calm Calm - N/A   Clear
7:39 AM 64.6 °F - 62.2 °F 92% 29.99 in 7.0 mi Calm Calm - N/A   Mostly Cloudy
7:57 AM 65.8 °F - 63.7 °F 93% 30.00 in 10.0 mi Calm Calm - N/A   Overcast
8:15 AM 66.7 °F - 64.2 °F 92% 30.00 in 10.0 mi Calm Calm - N/A   Overcast
8:16 AM 66.9 °F - 64.4 °F 92% 30.00 in 10.0 mi Calm Calm - N/A   Overcast
8:35 AM 68.9 °F - 64.8 °F 87% 30.00 in 10.0 mi Calm Calm - N/A   Scattered Clouds
8:55 AM 70.7 °F - 64.6 °F 81% 30.01 in 10.0 mi West 3.5 mph - N/A   Clear
9:18 AM 71.6 °F - 64.9 °F 79% 30.02 in 10.0 mi Calm Calm - N/A   Scattered Clouds
9:36 AM 72.7 °F - 64.6 °F 76% 30.02 in 10.0 mi NNE 4.6 mph - N/A   Mostly Cloudy
9:55 AM 72.0 °F - 63.9 °F 76% 30.03 in 10.0 mi Calm Calm - N/A   Mostly Cloudy
10:15 AM 72.5 °F - 63.7 °F 74% 30.03 in 4.0 mi Calm Calm - N/A   Haze
10:16 AM 72.7 °F - 63.7 °F 73% 30.03 in 4.0 mi Calm Calm - N/A   Haze
10:38 AM 74.3 °F - 62.4 °F 66% 30.03 in 10.0 mi Calm Calm - N/A   Mostly Cloudy
10:57 AM 74.8 °F - 63.3 °F 67% 30.04 in 10.0 mi Calm Calm - N/A   Scattered Clouds
11:15 AM 73.2 °F - 62.4 °F 69% 30.04 in 10.0 mi Calm Calm - N/A   Clear
11:35 AM 75.4 °F - 63.0 °F 65% 30.04 in 10.0 mi SE 3.5 mph - N/A   Scattered Clouds
11:55 AM 76.3 °F - 62.8 °F 63% 30.05 in 10.0 mi Calm Calm - N/A   Scattered Clouds
12:18 PM 77.4 °F - 62.6 °F 60% 30.04 in 10.0 mi Calm Calm - N/A   Scattered Clouds
12:36 PM 77.5 °F - 62.6 °F 60% 30.05 in 10.0 mi Calm Calm - N/A   Scattered Clouds
12:55 PM 78.8 °F - 63.5 °F 59% 30.05 in 10.0 mi Calm Calm - N/A   Mostly Cloudy
12:56 PM 78.6 °F - 63.5 °F 60% 30.05 in 10.0 mi Calm Calm - N/A   Mostly Cloudy
1:15 PM 77.7 °F - 62.8 °F 60% 30.04 in 10.0 mi Calm Calm - N/A   Mostly Cloudy
1:16 PM 77.7 °F - 63.0 °F 60% 30.04 in 10.0 mi Calm Calm - N/A   Mostly Cloudy
1:39 PM 80.8 °F 82.2 °F 63.7 °F 56% 30.04 in 10.0 mi WNW 3.5 mph - N/A   Scattered Clouds
1:57 PM 80.8 °F 82.0 °F 62.6 °F 54% 30.04 in 10.0 mi Calm Calm - N/A   Scattered Clouds
2:15 PM 79.3 °F - 62.4 °F 56% 30.04 in 10.0 mi WNW 4.6 mph - N/A   Scattered Clouds
2:35 PM 81.3 °F 82.7 °F 63.9 °F 55% 30.04 in 10.0 mi North 4.6 mph - N/A   Mostly Cloudy
2:36 PM 81.3 °F 82.7 °F 63.9 °F 55% 30.04 in 10.0 mi NNW 3.5 mph - N/A   Mostly Cloudy
2:55 PM 81.5 °F 82.4 °F 61.5 °F 51% 30.03 in 10.0 mi Calm Calm - N/A   Scattered Clouds
2:59 PM 82.0 °F 83.0 °F 62.1 °F 51% 30.04 in 10.0 mi West 4.6 mph - N/A   Scattered Clouds
3:18 PM 80.4 °F 81.7 °F 63.1 °F 55% 30.03 in 10.0 mi WNW 5.8 mph - N/A   Scattered Clouds
3:36 PM 79.7 °F - 61.5 °F 54% 30.03 in 10.0 mi Calm Calm - N/A   Scattered Clouds
3:55 PM 82.0 °F 83.1 °F 62.8 °F 52% 30.03 in 10.0 mi WSW 4.6 mph - N/A   Scattered Clouds
3:56 PM 81.7 °F 82.9 °F 62.8 °F 53% 30.03 in 10.0 mi WSW 4.6 mph - N/A   Scattered Clouds
4:15 PM 83.3 °F 84.4 °F 63.5 °F 51% 30.02 in 10.0 mi SW 6.9 mph - N/A   Scattered Clouds
4:39 PM 82.4 °F 83.4 °F 62.8 °F 51% 30.02 in 10.0 mi SW 8.1 mph - N/A   Scattered Clouds
4:57 PM 83.3 °F 83.9 °F 61.7 °F 48% 30.02 in 10.0 mi WSW 9.2 mph - N/A   Scattered Clouds
5:15 PM 82.6 °F 83.4 °F 62.2 °F 50% 30.02 in 10.0 mi SSW 6.9 mph - N/A   Scattered Clouds
5:16 PM 82.2 °F 83.2 °F 62.2 °F 51% 30.02 in 10.0 mi SSW 8.1 mph - N/A   Clear
5:35 PM 82.6 °F 82.9 °F 60.3 °F 47% 30.02 in 10.0 mi SW 6.9 mph - N/A   Scattered Clouds
5:55 PM 82.6 °F 83.4 °F 62.2 °F 50% 30.01 in 10.0 mi WSW 6.9 mph - N/A   Scattered Clouds
6:18 PM 82.4 °F 83.0 °F 61.3 °F 49% 30.01 in 10.0 mi SW 6.9 mph - N/A   Clear
6:35 PM 81.9 °F 82.8 °F 62.2 °F 51% 30.01 in 10.0 mi SSW 5.8 mph - N/A   Scattered Clouds
6:55 PM 81.0 °F 81.8 °F 61.2 °F 51% 30.00 in 10.0 mi WSW 4.6 mph - N/A   Scattered Clouds
7:15 PM 80.4 °F 81.7 °F 62.8 °F 55% 30.01 in 10.0 mi SW 4.6 mph - N/A   Clear
7:39 PM 79.5 °F - 63.5 °F 58% 30.01 in 10.0 mi Calm Calm - N/A   Clear
7:57 PM 78.6 °F - 64.8 °F 62% 30.01 in 10.0 mi Calm Calm - N/A   Clear
8:15 PM 77.2 °F - 65.7 °F 67% 30.01 in 10.0 mi Calm Calm - N/A   Clear
8:16 PM 77.2 °F - 65.5 °F 67% 30.01 in 10.0 mi West 3.5 mph - N/A   Clear
8:35 PM 72.5 °F - 66.2 °F 81% 30.01 in 10.0 mi Calm Calm - N/A   Clear
8:36 PM 72.1 °F - 66.2 °F 82% 30.01 in 10.0 mi Calm Calm - N/A   Clear
8:55 PM 72.0 °F - 66.2 °F 82% 30.01 in 10.0 mi Calm Calm - N/A   Clear
9:00 PM 70.5 °F - 66.4 °F 87% 30.01 in 10.0 mi Calm Calm - N/A   Clear
9:18 PM 69.4 °F - 65.7 °F 88% 30.02 in 7.0 mi Calm Calm - N/A   Clear
9:36 PM 68.4 °F - 65.1 °F 89% 30.02 in 10.0 mi Calm Calm - N/A   Clear
9:55 PM 68.0 °F - 65.3 °F 91% 30.02 in 10.0 mi Calm Calm - N/A   Clear
9:56 PM 68.0 °F - 65.1 °F 90% 30.02 in 10.0 mi Calm Calm - N/A   Clear
10:15 PM 68.5 °F - 65.3 °F 89% 30.03 in 10.0 mi ENE 4.6 mph - N/A   Clear
10:16 PM 68.9 °F - 65.3 °F 88% 30.03 in 10.0 mi East 4.6 mph - N/A   Clear
10:39 PM 69.6 °F - 65.3 °F 86% 30.03 in 10.0 mi ENE 3.5 mph - N/A   Mostly Cloudy
10:57 PM 69.3 °F - 64.8 °F 86% 30.03 in 10.0 mi Calm Calm - N/A   Mostly Cloudy
11:15 PM 68.9 °F - 64.4 °F 86% 30.03 in 10.0 mi Calm Calm - N/A   Mostly Cloudy
11:35 PM 68.4 °F - 64.4 °F 87% 30.03 in 10.0 mi Calm Calm - N/A   Scattered Clouds
11:55 PM 68.0 °F - 64.2 °F 88% 30.03 in 10.0 mi Calm Calm - N/A   Scattered Clouds
11:59 PM 67.8 °F - 64.4 °F 89% 30.03 in 10.0 mi Calm Calm - N/A   Scattered Clouds